Location: Irma
(52.9170°N, 111.2330°W)
Time: 21:07:36
(UTC-07:00)

Amateur Radio Satellites - All Passes

Search period start: 20 December 2014 20:37
Search period end: 21 December 2014 20:37
Location: Irma, 52.9170°N, 111.2330°W

Satellite Date Start Highest point End Downlink Frequencies (MHz)
Time Altitude Azimuth
GOMX 1 20 Dec 20:40:31 20:44:39 76° 257° (WSW) 20:48:55 467.674
HUMSAT D 20 Dec 20:45:40 20:48:48 21° 60° (ENE) 20:52:00 437.325/437.525
Oscar 11 20 Dec 20:50:02 20:54:20 66° 71° (ENE) 20:58:41 145.826/435.025
DANDE 20 Dec 20:51:00 20:58:15 84° 259° (W) 21:06:50 436.750
UKube-1 20 Dec 20:58:41 21:02:59 65° 71° (ENE) 21:07:18 .
BEESAT 2 20 Dec 20:59:58 21:04:07 51° 39° (NE) 21:08:12 435.950
HO-68 20 Dec 21:01:29 21:08:22 48° 261° (W) 21:15:18 435.675
AAUSAT CUBESAT 2 20 Dec 21:04:15 21:08:23 53° 260° (W) 21:12:34 437.432
DOVE 4 20 Dec 21:05:14 21:09:19 58° 259° (W) 21:13:33 437.250
CUBEBUG 2 20 Dec 21:11:07 21:15:18 68° 72° (ENE) 21:19:38 437.445
CANX-2 20 Dec 21:19:16 21:22:53 26° 267° (W) 21:26:31 2200.000
ZACube-1 20 Dec 21:20:58 21:25:08 64° 71° (ENE) 21:29:25 437.345
VELOX 1 20 Dec 21:23:26 21:27:38 44° 67° (ENE) 21:31:51 145.980
ESTCUBE 1 20 Dec 21:27:16 21:30:57 25° 60° (ENE) 21:34:37 437.505/2401.250
CINEMA 3 20 Dec 21:29:15 21:33:21 55° 260° (W) 21:37:38 145.822/145.860
COMPASS 1 20 Dec 21:40:47 21:44:11 23° 268° (W) 21:47:37 437.405
CUSAT 1 20 Dec 21:41:58 21:48:48 42° 269° (W) 21:56:33 437.405
UNISAT 6 20 Dec 21:42:03 21:43:44 12° 84° (E) 21:45:25 437.425
TISAT 1 20 Dec 21:42:58 21:43:51 11° 51° (NE) 21:44:45 437.305
SPROUT 20 Dec 21:46:40 21:47:47 11° 51° (NE) 21:48:54 437.525
SEEDS 20 Dec 21:47:12 21:50:10 18° 271° (W) 21:53:10 437.485
FUNcube-1 20 Dec 21:47:39 21:51:51 74° 257° (WSW) 21:56:11 145.935
UWE-3 20 Dec 21:48:59 21:53:09 62° 259° (WSW) 21:57:28 435.000/436.395/437.385
CUTE 1.7 + AOD 2 20 Dec 21:51:29 21:54:01 15° 273° (W) 21:56:34 437.475
PCSat 20 Dec 21:55:13 22:00:37 59° 44° (NE) 22:05:59 145.827
DELFI C3 20 Dec 21:55:24 21:59:13 36° 263° (W) 22:03:04 145.870
BRITE-PL 20 Dec 21:56:10 21:57:58 13° 274° (W) 21:59:48 437.365/2234.400
50 SAT 20 Dec 21:56:20 22:00:21 72° 73° (ENE) 22:04:26 437.505
RS-15 20 Dec 21:57:07 22:07:30 46° 246° (WSW) 22:18:19 29.354- 29.394
BEESAT 3 20 Dec 21:58:07 22:02:15 57° 233° (SW) 22:06:19 437.485
YUBILEINY 20 Dec 22:02:50 22:07:07 15° 67° (ENE) 22:11:23 435.215
POLYITAN 1 20 Dec 22:02:56 22:03:55 11° 85° (E) 22:04:55 437.675
DX 1 20 Dec 22:04:32 22:08:26 32° 264° (W) 22:12:22 434.975-435.025
NANOSAT C BR1 20 Dec 22:04:50 22:05:59 11° 85° (E) 22:07:07 145.865
AIST 2 20 Dec 22:05:55 22:10:16 87° 46° (NE) 22:14:33 435.215
AISAT 20 Dec 22:06:31 22:10:56 77° 256° (WSW) 22:15:23 437.250
STRAND 1 20 Dec 22:07:25 22:08:37 11° 316° (NW) 22:09:50 437.568
CUBEBUG 1 20 Dec 22:11:51 22:16:05 52° 69° (ENE) 22:20:20 437.445
ANTELSAT 20 Dec 22:12:32 22:16:10 22° 91° (E) 22:19:48 437.575/2403.000
SO-50 20 Dec 22:13:13 22:17:49 77° 131° (SE) 22:22:35 436.795
QB50P1 20 Dec 22:18:12 22:20:39 15° 88° (E) 22:23:07 145.935-145.965
HUMSAT D 20 Dec 22:20:12 22:24:17 56° 259° (W) 22:28:27 437.325/437.525
Oscar 11 20 Dec 22:27:58 22:30:58 18° 271° (W) 22:33:58 145.826/435.025
DANDE 20 Dec 22:35:26 22:41:05 24° 277° (W) 22:47:24 436.750
UKube-1 20 Dec 22:36:36 22:39:35 18° 270° (W) 22:42:35 .
BEESAT 2 20 Dec 22:38:31 22:42:13 30° 240° (WSW) 22:45:52 435.950
POPSAT HIP 1 20 Dec 22:46:07 22:49:43 26° 94° (E) 22:53:20 437.405
TIGRISAT 20 Dec 22:47:26 22:51:53 41° 97° (E) 22:56:20 435.000
CUBEBUG 2 20 Dec 22:49:48 22:52:32 17° 272° (W) 22:55:20 437.445
BEESAT 20 Dec 22:58:43 23:00:59 13° 50° (NE) 23:03:16 436.000
ZACube-1 20 Dec 22:59:07 23:01:59 18° 271° (W) 23:04:55 437.345
VELOX 1 20 Dec 23:00:39 23:04:24 27° 266° (W) 23:08:10 145.980
ESTCUBE 1 20 Dec 23:03:06 23:07:33 54° 259° (W) 23:12:02 437.505/2401.250
BUGSAT 1 20 Dec 23:11:40 23:15:25 35° 97° (E) 23:19:10 437.445
DUCHIFAT 1 20 Dec 23:13:42 23:17:49 46° 99° (E) 23:21:55 145.980
TISAT 1 20 Dec 23:14:43 23:18:51 60° 71° (ENE) 23:23:01 437.305
UNISAT 6 20 Dec 23:16:38 23:21:21 73° 103° (ESE) 23:26:05 437.425
SPROUT 20 Dec 23:18:50 23:23:02 61° 71° (ENE) 23:27:17 437.525
QB50P2 20 Dec 23:27:24 23:31:40 63° 102° (ESE) 23:35:55 145.880/145.840
FUNcube-1 20 Dec 23:28:42 23:29:04 10° 277° (W) 23:29:26 145.935
CUSAT 1 20 Dec 23:29:47 23:30:20 10° 288° (WNW) 23:30:53 437.405
50 SAT 20 Dec 23:33:48 23:36:06 15° 272° (W) 23:38:25 437.505
POLYITAN 1 20 Dec 23:36:20 23:40:38 77° 104° (ESE) 23:44:56 437.675
NANOSAT C BR1 20 Dec 23:38:19 23:42:36 79° 104° (ESE) 23:46:52 145.865
PCSat 20 Dec 23:38:59 23:43:49 33° 246° (WSW) 23:48:37 145.827
AUBIESAT-1 20 Dec 23:40:59 23:44:46 23° 51° (NE) 23:48:31 437.475
AIST 2 20 Dec 23:45:32 23:48:20 17° 247° (WSW) 23:51:06 435.215
AISAT 20 Dec 23:47:01 23:48:21 11° 275° (W) 23:49:42 437.250
ANTELSAT 20 Dec 23:48:42 23:53:21 62° 290° (WNW) 23:58:01 437.575/2403.000
CUBEBUG 1 20 Dec 23:49:19 23:52:45 22° 268° (W) 23:56:12 437.445
QB50P1 20 Dec 23:52:49 23:57:06 77° 287° (WNW) 00:01:21 145.935-145.965
YUBILEINY 20 Dec 23:53:29 00:01:57 58° 91° (E) 00:10:25 435.215
SO-50 20 Dec 23:54:37 23:58:49 32° 334° (NNW) 00:03:09 436.795
KKS-1 20 Dec 23:59:20 00:00:07 10° 49° (NE) 00:00:55 437.445
M-CUBED/EXP-1 PRIME 21 Dec 00:05:58 00:10:24 35° 57° (ENE) 00:14:50 437.505
SWISSCUBE 21 Dec 00:08:33 00:13:05 44° 66° (ENE) 00:17:38 437.505
ITUPSAT 1 21 Dec 00:09:12 00:13:42 41° 65° (ENE) 00:18:12 437.325
RS-15 21 Dec 00:14:21 00:16:41 11° 271° (W) 00:19:03 29.354- 29.394
POPSAT HIP 1 21 Dec 00:21:46 00:25:48 42° 293° (WNW) 00:29:50 437.405
TIGRISAT 21 Dec 00:24:23 00:28:34 33° 296° (WNW) 00:32:46 435.000
BEESAT 21 Dec 00:33:14 00:37:59 65° 70° (ENE) 00:42:45 436.000
BUGSAT 1 21 Dec 00:47:21 00:50:52 29° 296° (WNW) 00:54:24 437.445
DUCHIFAT 1 21 Dec 00:49:59 00:53:30 26° 298° (WNW) 00:57:00 145.980
TISAT 1 21 Dec 00:52:07 00:55:05 19° 270° (W) 00:58:03 437.305
UNISAT 6 21 Dec 00:54:15 00:57:41 21° 303° (WNW) 01:01:09 437.425
SPROUT 21 Dec 00:56:29 00:59:32 19° 270° (W) 01:02:36 437.525
QB50P2 21 Dec 01:04:05 01:07:13 20° 301° (WNW) 01:10:20 145.880/145.840
O/OREOS (USA 219) 21 Dec 01:06:25 01:10:44 51° 113° (ESE) 01:15:05 437.305
POLYITAN 1 21 Dec 01:13:16 01:16:06 17° 303° (WNW) 01:18:56 437.675
AUBIESAT-1 21 Dec 01:14:21 01:19:14 79° 250° (WSW) 01:24:08 437.475
NANOSAT C BR1 21 Dec 01:15:15 01:17:59 17° 304° (WNW) 01:20:42 145.865
Oscar 19 21 Dec 01:19:52 01:24:28 30° 94° (E) 01:29:01 437.125/150
ANTELSAT 21 Dec 01:27:18 01:29:17 13° 309° (NW) 01:31:17 437.575/2403.000
STARS 21 Dec 01:27:24 01:31:24 36° 65° (ENE) 01:35:26 437.465
QB50P1 21 Dec 01:30:17 01:32:18 13° 307° (NW) 01:34:19 145.935-145.965
KKS-1 21 Dec 01:31:31 01:35:50 54° 69° (ENE) 01:40:11 437.445
Gurwin Techsat 1B 21 Dec 01:35:25 01:37:22 12° 82° (E) 01:39:18 435.225
ITAMSAT 1 21 Dec 01:37:04 01:40:34 18° 88° (E) 01:44:04 435.822/435.867
SO-50 21 Dec 01:37:08 01:40:42 21° 358° (N) 01:44:21 436.795
M-CUBED/EXP-1 PRIME 21 Dec 01:40:35 01:45:17 46° 256° (WSW) 01:50:01 437.505
SWISSCUBE 21 Dec 01:46:50 01:51:06 31° 265° (W) 01:55:23 437.505
ITUPSAT 1 21 Dec 01:47:21 01:51:41 33° 264° (W) 01:56:03 437.325
YUBILEINY 21 Dec 01:50:56 01:59:08 43° 295° (WNW) 02:07:23 435.215
AIST 1 21 Dec 02:10:33 02:13:06 15° 60° (ENE) 02:15:39
BEESAT 21 Dec 02:12:39 02:16:16 21° 269° (W) 02:19:55 436.000
MOZHAYETS 4 21 Dec 02:45:28 02:48:24 17° 55° (NE) 02:51:21
O/OREOS (USA 219) 21 Dec 02:46:29 02:50:23 29° 314° (NW) 02:54:19 437.305
HORYU 2 21 Dec 02:48:33 02:51:43 18° 90° (E) 02:54:52 437.375
AUBIESAT-1 21 Dec 02:52:19 02:54:54 14° 269° (W) 02:57:30 437.475
Oscar 19 21 Dec 02:59:00 03:04:02 50° 294° (WNW) 03:09:03 437.125/150
STARS 21 Dec 03:03:58 03:07:55 33° 264° (W) 03:11:55 437.465
KKS-1 21 Dec 03:09:19 03:12:48 22° 268° (W) 03:16:19 437.445
Gurwin Techsat 1B 21 Dec 03:13:04 03:18:23 67° 103° (ESE) 03:23:40 435.225
ITAMSAT 1 21 Dec 03:15:32 03:20:44 83° 288° (WNW) 03:25:55 435.822/435.867
SO-50 21 Dec 03:18:31 03:22:41 28° 22° (NNE) 03:26:54 436.795
AO-7 21 Dec 03:42:23 03:49:32 30° 92° (E) 03:56:36 29.400- 29.500
AIST 1 21 Dec 03:47:05 03:51:24 80° 261° (W) 03:55:40
YUBILEINY 21 Dec 03:54:43 03:58:59 14° 324° (NW) 04:03:15 435.215
GONETS M04 21 Dec 03:56:31 04:01:49 18° 70° (ENE) 04:07:06
CUBESAT XI-V 21 Dec 04:11:30 04:13:03 12° 50° (NE) 04:14:36 437.345
JAS-2 21 Dec 04:15:50 04:19:30 17° 83° (E) 04:22:58 435.910
MOZHAYETS 4 21 Dec 04:20:20 04:25:00 89° 75° (ENE) 04:29:43
HORYU 2 21 Dec 04:24:21 04:28:52 68° 289° (WNW) 04:33:21 437.375
STRAND 1 21 Dec 04:31:44 04:35:04 18° 52° (NE) 04:38:25 437.568
Oscar 19 21 Dec 04:40:24 04:42:17 12° 314° (NW) 04:44:10 437.125/150
Gurwin Techsat 1B 21 Dec 04:53:39 04:57:59 26° 303° (WNW) 05:02:17 435.225
PRISM 21 Dec 04:53:53 04:57:49 39° 66° (ENE) 05:01:46 437.425
ITAMSAT 1 21 Dec 04:56:07 04:59:32 18° 308° (NW) 05:02:57 435.822/435.867
SO-50 21 Dec 04:59:02 05:03:55 79° 44° (NE) 05:08:51 436.795
CUTE-I 21 Dec 05:10:55 05:12:02 11° 82° (E) 05:13:09 437.470
AIST 1 21 Dec 05:27:19 05:28:16 11° 281° (W) 05:29:13
AO-7 21 Dec 05:34:48 05:43:13 82° 294° (WNW) 05:51:35 29.400- 29.500
CUBESAT XI-V 21 Dec 05:45:00 05:49:35 58° 70° (ENE) 05:54:10 437.345
GONETS M04 21 Dec 05:48:12 05:56:55 67° 94° (E) 06:05:39
JAS-2 21 Dec 05:59:44 06:05:40 89° 287° (WNW) 06:11:00 435.910
VERMONT LUNAR 21 Dec 05:59:48 06:00:51 11° 185° (S) 06:01:53 437.305
MOZHAYETS 4 21 Dec 06:00:22 06:02:55 15° 274° (W) 06:05:30
HORYU 2 21 Dec 06:02:40 06:04:45 13° 309° (NW) 06:06:49 437.375
STRAND 1 21 Dec 06:08:28 06:13:35 83° 72° (ENE) 06:18:43 437.568
Cubesat XI-IV 21 Dec 06:15:03 06:19:55 35° 96° (E) 06:24:45 437.490
PHONESAT 2.4 21 Dec 06:16:12 06:17:33 12° 183° (S) 06:18:55 2401.200-2431.200
PRISM 21 Dec 06:29:47 06:33:28 28° 265° (W) 06:37:10 437.425
SO-50 21 Dec 06:40:14 06:44:02 23° 244° (WSW) 06:47:51 436.795
CUTE-I 21 Dec 06:47:58 06:53:15 61° 102° (ESE) 06:58:30 437.470
CUBESAT XI-V 21 Dec 07:23:44 07:27:23 22° 269° (W) 07:31:03 437.345
AO-7 21 Dec 07:28:12 07:35:01 29° 317° (NW) 07:41:50 29.400- 29.500
JAS-2 21 Dec 07:45:44 07:49:57 21° 311° (NW) 07:53:53 435.910
GONETS M04 21 Dec 07:46:17 07:54:23 39° 298° (WNW) 08:02:32
STRAND 1 21 Dec 07:50:02 07:53:26 18° 272° (W) 07:56:51 437.568
O/OREOS (USA 219) 21 Dec 07:52:44 07:54:51 13° 30° (NNE) 07:56:57 437.305
Cubesat XI-IV 21 Dec 07:55:06 08:00:09 45° 295° (WNW) 08:05:11 437.490
YUBILEINY 21 Dec 07:59:58 08:03:57 14° 35° (NE) 08:07:55 435.215
BRITE-PL 21 Dec 08:13:03 08:16:13 18° 89° (E) 08:19:32 437.365/2234.400
TIGRISAT 21 Dec 08:18:33 08:20:41 13° 51° (NE) 08:22:50 435.000
HO-68 21 Dec 08:22:23 08:28:17 27° 90° (E) 08:34:08 435.675
CUTE-I 21 Dec 08:28:34 08:33:01 28° 302° (WNW) 08:37:28 437.470
DANDE 21 Dec 08:33:51 08:34:52 11° 73° (ENE) 08:35:57 436.750
GOMX 1 21 Dec 08:35:54 08:39:30 21° 91° (E) 08:43:16 467.674
DUCHIFAT 1 21 Dec 08:39:26 08:41:20 13° 53° (NE) 08:43:15 145.980
AAUSAT CUBESAT 2 21 Dec 08:42:34 08:45:29 18° 89° (E) 08:48:22 437.432
UNISAT 6 21 Dec 08:46:31 08:49:54 22° 58° (ENE) 08:53:21 437.425
QB50P2 21 Dec 08:52:34 08:55:16 17° 56° (ENE) 08:57:58 145.880/145.840
DOVE 4 21 Dec 08:57:50 09:01:45 25° 93° (E) 09:05:50 437.250
CANX-2 21 Dec 08:58:00 09:02:04 37° 97° (E) 09:06:05 2200.000
CUBEBUG 2 21 Dec 08:58:34 08:59:40 11° 83° (E) 09:00:46 437.445
POLYITAN 1 21 Dec 09:01:16 09:04:17 19° 58° (ENE) 09:07:19 437.675
NANOSAT C BR1 21 Dec 09:02:48 09:05:51 20° 58° (ENE) 09:08:54 145.865
QB50P1 21 Dec 09:16:49 09:20:16 25° 61° (ENE) 09:23:45 145.935-145.965
ANTELSAT 21 Dec 09:17:36 09:21:41 37° 65° (ENE) 09:25:52 437.575/2403.000
COMPASS 1 21 Dec 09:17:43 09:21:46 40° 97° (E) 09:25:47 437.405
CUSAT 1 21 Dec 09:17:54 09:21:37 32° 87° (E) 09:26:26 437.405
CINEMA 3 21 Dec 09:17:57 09:21:49 25° 92° (E) 09:25:46 145.822/145.860
AO-7 21 Dec 09:21:32 09:25:11 14° 343° (NNW) 09:28:49 29.400- 29.500
SEEDS 21 Dec 09:24:12 09:28:27 53° 100° (E) 09:32:38 437.485
CUTE 1.7 + AOD 2 21 Dec 09:28:36 09:32:56 67° 102° (ESE) 09:37:13 437.475
DELFI C3 21 Dec 09:30:10 09:33:27 22° 92° (E) 09:36:43 145.870
O/OREOS (USA 219) 21 Dec 09:31:03 09:35:25 46° 53° (NE) 09:39:47 437.305
FUNcube-1 21 Dec 09:31:12 09:33:57 16° 87° (E) 09:36:43 145.935
UWE-3 21 Dec 09:33:27 09:36:45 19° 90° (E) 09:40:06 435.000/436.395/437.385
Cubesat XI-IV 21 Dec 09:37:32 09:39:02 11° 317° (NW) 09:40:32 437.490
POPSAT HIP 1 21 Dec 09:44:57 09:48:56 43° 67° (ENE) 09:52:57 437.405
DX 1 21 Dec 09:46:39 09:50:25 28° 95° (E) 09:54:11 434.975-435.025
BRITE-PL 21 Dec 09:50:37 09:55:12 75° 287° (WNW) 10:00:09 437.365/2234.400
GONETS M04 21 Dec 09:50:52 09:54:35 13° 327° (NNW) 09:58:17
TIGRISAT 21 Dec 09:52:16 09:56:38 72° 72° (ENE) 10:01:10 435.000
AISAT 21 Dec 09:53:01 09:55:21 14° 87° (E) 09:57:41 437.250
YUBILEINY 21 Dec 09:55:45 10:03:54 41° 64° (ENE) 10:12:00 435.215
MaSat-1 21 Dec 09:58:16 10:00:25 41° 308° (NW) 10:02:32 437.345
HUMSAT D 21 Dec 09:59:32 10:02:25 17° 89° (E) 10:05:17 437.325/437.525
Oscar 11 21 Dec 10:07:31 10:11:52 58° 101° (E) 10:16:10 145.826/435.025
BUGSAT 1 21 Dec 10:07:45 10:11:45 57° 70° (ENE) 10:15:45 437.445
HO-68 21 Dec 10:09:35 10:16:47 80° 292° (WNW) 10:23:55 435.675
DUCHIFAT 1 21 Dec 10:12:19 10:16:30 76° 73° (ENE) 10:20:44 145.980
DANDE 21 Dec 10:12:54 10:16:49 80° 101° (E) 10:22:14 436.750
GOMX 1 21 Dec 10:13:24 10:18:00 64° 289° (WNW) 10:22:55 467.674
UKube-1 21 Dec 10:16:37 10:20:52 50° 101° (E) 10:25:05 .
AAUSAT CUBESAT 2 21 Dec 10:17:21 10:21:35 64° 288° (WNW) 10:25:46 437.432
RS-15 21 Dec 10:20:40 10:27:23 19° 97° (E) 10:34:06 29.354- 29.394
UNISAT 6 21 Dec 10:21:55 10:26:18 63° 258° (WSW) 10:30:50 437.425
QB50P2 21 Dec 10:26:27 10:30:41 79° 256° (WSW) 10:34:57 145.880/145.840
CUBEBUG 2 21 Dec 10:32:36 10:37:12 69° 102° (ESE) 10:41:54 437.445
CANX-2 21 Dec 10:34:07 10:37:56 31° 296° (WNW) 10:41:44 2200.000
DOVE 4 21 Dec 10:35:13 10:39:47 54° 290° (WNW) 10:44:36 437.250
POLYITAN 1 21 Dec 10:35:39 10:39:50 65° 258° (WSW) 10:44:04 437.675
NANOSAT C BR1 21 Dec 10:37:10 10:41:21 63° 258° (WSW) 10:45:33 145.865
ZACube-1 21 Dec 10:39:49 10:44:18 61° 101° (ESE) 10:48:50 437.345
VELOX 1 21 Dec 10:44:36 10:48:45 38° 97° (E) 10:52:53 145.980
ESTCUBE 1 21 Dec 10:50:25 10:53:53 21° 91° (E) 10:57:19 437.505/2401.250
QB50P1 21 Dec 10:51:55 10:55:59 46° 261° (W) 11:00:04 145.935-145.965
COMPASS 1 21 Dec 10:53:42 10:57:23 29° 297° (WNW) 11:01:03 437.405
ANTELSAT 21 Dec 10:54:32 10:58:32 33° 265° (W) 11:02:39 437.575/2403.000
CINEMA 3 21 Dec 10:54:44 10:59:18 55° 290° (WNW) 11:04:03 145.822/145.860
CUSAT 1 21 Dec 11:00:35 11:04:35 38° 297° (WNW) 11:09:53 437.405
SEEDS 21 Dec 11:00:36 11:03:59 23° 299° (WNW) 11:07:22 437.485
DELFI C3 21 Dec 11:04:59 11:08:59 47° 291° (WNW) 11:12:56 145.870
CUTE 1.7 + AOD 2 21 Dec 11:05:21 11:08:27 20° 302° (WNW) 11:11:32 437.475
50 SAT 21 Dec 11:05:48 11:09:54 54° 100° (E) 11:13:59 437.505
Oscar 19 21 Dec 11:05:59 11:09:12 17° 51° (NE) 11:12:26 437.125/150
FUNcube-1 21 Dec 11:06:20 11:10:52 81° 287° (WNW) 11:15:27 145.935
UWE-3 21 Dec 11:09:12 11:13:44 67° 288° (WNW) 11:18:21 435.000/436.395/437.385
O/OREOS (USA 219) 21 Dec 11:10:47 11:14:39 29° 254° (WSW) 11:18:32 437.305
AO-7 21 Dec 11:11:28 11:14:32 13° 11° (NNE) 11:17:36 29.400- 29.500
POPSAT HIP 1 21 Dec 11:21:31 11:25:01 25° 267° (W) 11:28:34 437.405
DX 1 21 Dec 11:22:43 11:26:48 41° 294° (WNW) 11:30:53 434.975-435.025
ITAMSAT 1 21 Dec 11:25:27 11:27:11 12° 45° (NE) 11:28:55 435.822/435.867
AISAT 21 Dec 11:28:10 11:32:38 87° 287° (WNW) 11:37:05 437.250
BRITE-PL 21 Dec 11:30:42 11:33:07 14° 306° (NW) 11:35:36 437.365/2234.400
TIGRISAT 21 Dec 11:31:03 11:33:57 17° 272° (W) 11:36:54 435.000
CUBEBUG 1 21 Dec 11:31:09 11:35:20 44° 99° (E) 11:39:29 437.445
HUMSAT D 21 Dec 11:34:22 11:38:41 69° 288° (WNW) 11:43:00 437.325/437.525
Oscar 11 21 Dec 11:44:20 11:47:43 22° 300° (WNW) 11:51:05 145.826/435.025
BUGSAT 1 21 Dec 11:44:46 11:47:37 18° 269° (W) 11:50:28 437.445
DUCHIFAT 1 21 Dec 11:50:32 11:52:55 15° 272° (W) 11:55:19 145.980
YUBILEINY 21 Dec 11:52:40 12:01:11 61° 268° (W) 12:09:39 435.215
UKube-1 21 Dec 11:53:16 11:56:47 25° 300° (WNW) 12:00:18 .
GOMX 1 21 Dec 11:53:23 11:55:23 13° 308° (NW) 11:57:26 467.674
AAUSAT CUBESAT 2 21 Dec 11:55:07 11:56:27 11° 308° (NW) 11:57:46 437.432
HO-68 21 Dec 11:58:05 12:03:35 25° 314° (NW) 12:09:04 435.675
DANDE 21 Dec 11:58:19 12:01:25 18° 311° (NW) 12:05:08 436.750
QB50P2 21 Dec 12:06:21 12:07:22 11° 275° (W) 12:08:23 145.880/145.840
CUBEBUG 2 21 Dec 12:10:05 12:13:31 21° 301° (WNW) 12:17:00 437.445
DOVE 4 21 Dec 12:15:24 12:16:41 11° 310° (NW) 12:17:58 437.250
ZACube-1 21 Dec 12:16:51 12:20:21 23° 300° (WNW) 12:23:53 437.345
VELOX 1 21 Dec 12:21:21 12:25:17 32° 297° (WNW) 12:29:13 145.980
RS-15 21 Dec 12:26:40 12:37:21 65° 122° (ESE) 12:48:10 29.354- 29.394
ESTCUBE 1 21 Dec 12:26:42 12:31:08 57° 290° (WNW) 12:35:32 437.505/2401.250
TISAT 1 21 Dec 12:29:29 12:33:35 47° 100° (E) 12:37:40 437.305
BEESAT 21 Dec 12:30:13 12:31:13 11° 83° (E) 12:32:13 436.000
CINEMA 3 21 Dec 12:34:12 12:35:37 11° 310° (NW) 12:37:04 145.822/145.860
SPROUT 21 Dec 12:35:37 12:39:51 52° 100° (E) 12:44:03 437.525
BEESAT 2 21 Dec 12:41:18 12:42:56 12° 110° (ESE) 12:44:35 435.950
50 SAT 21 Dec 12:41:38 12:44:50 22° 300° (WNW) 12:48:01 437.505
Oscar 19 21 Dec 12:42:38 12:47:46 77° 72° (ENE) 12:52:59 437.125/150
FUNcube-1 21 Dec 12:44:03 12:46:34 15° 306° (NW) 12:49:06 145.935
PCSat 21 Dec 12:46:22 12:48:42 13° 103° (ESE) 12:51:03 145.827
UWE-3 21 Dec 12:47:27 12:49:30 13° 308° (NW) 12:51:34 435.000/436.395/437.385
AO-7 21 Dec 12:58:11 13:04:27 25° 38° (NE) 13:10:44 29.400- 29.500
ITAMSAT 1 21 Dec 13:00:36 13:05:34 49° 66° (ENE) 13:10:33 435.822/435.867
Gurwin Techsat 1B 21 Dec 13:01:18 13:06:03 35° 61° (ENE) 13:10:49 435.225
AISAT 21 Dec 13:06:02 13:08:39 16° 306° (NW) 13:11:15 437.250
CUBEBUG 1 21 Dec 13:07:54 13:11:33 27° 298° (WNW) 13:15:11 437.445
HUMSAT D 21 Dec 13:11:58 13:13:44 12° 307° (NW) 13:15:30 437.325/437.525
BEESAT 3 21 Dec 13:35:57 13:39:45 37° 123° (ESE) 13:43:38 437.485
SWISSCUBE 21 Dec 13:40:30 13:45:05 44° 99° (E) 13:49:38 437.505
ITUPSAT 1 21 Dec 13:41:23 13:45:56 41° 98° (E) 13:50:26 437.325
AIST 2 21 Dec 13:48:40 13:52:09 25° 118° (ESE) 13:55:41 435.215
YUBILEINY 21 Dec 13:51:32 13:56:06 16° 292° (WNW) 14:00:40 435.215
HORYU 2 21 Dec 13:52:38 13:56:43 35° 64° (ENE) 14:00:49 437.375
GONETS M04 21 Dec 13:54:45 13:59:36 16° 38° (NE) 14:04:26
BEESAT 21 Dec 14:05:14 14:10:01 67° 103° (ESE) 14:14:46 436.000
TISAT 1 21 Dec 14:05:46 14:09:13 25° 299° (WNW) 14:12:39 437.305
ESTCUBE 1 21 Dec 14:05:46 14:07:06 11° 311° (NW) 14:08:26 437.505/2401.250
SPROUT 21 Dec 14:12:15 14:15:41 24° 299° (WNW) 14:19:06 437.525
ISS 21 Dec 14:12:31 14:15:05 21° 148° (SSE) 14:17:39 145.825
BEESAT 2 21 Dec 14:16:19 14:20:27 72° 130° (SE) 14:24:39 435.950
Oscar 19 21 Dec 14:24:02 14:27:44 20° 272° (W) 14:31:27 437.125/150
PCSat 21 Dec 14:25:45 14:31:06 64° 123° (ESE) 14:36:29 145.827
AUBIESAT-1 21 Dec 14:26:48 14:30:52 34° 101° (E) 14:34:36 437.475
JAS-2 21 Dec 14:33:44 14:39:09 24° 52° (NE) 14:44:10 435.910
RS-15 21 Dec 14:39:15 14:50:01 60° 330° (NNW) 15:01:04 29.354- 29.394
ITAMSAT 1 21 Dec 14:40:43 14:45:17 31° 266° (W) 14:49:52 435.822/435.867
Gurwin Techsat 1B 21 Dec 14:40:48 14:45:55 47° 261° (W) 14:51:04 435.225
STARS 21 Dec 14:47:35 14:51:31 30° 95° (E) 14:55:27 437.465
AO-7 21 Dec 14:47:41 14:55:54 67° 62° (ENE) 15:04:11 29.400- 29.500
M-CUBED/EXP-1 PRIME 21 Dec 14:52:59 14:57:29 64° 108° (ESE) 15:01:35 437.505
KKS-1 21 Dec 14:53:13 14:57:33 47° 100° (E) 15:01:53 437.445
BEESAT 3 21 Dec 15:13:57 15:17:56 43° 323° (NW) 15:21:57 437.485
SWISSCUBE 21 Dec 15:18:38 15:22:50 31° 298° (WNW) 15:27:01 437.505
ITUPSAT 1 21 Dec 15:19:29 15:23:45 33° 298° (WNW) 15:28:00 437.325
AIST 2 21 Dec 15:26:14 15:30:29 62° 318° (NW) 15:34:47 435.215
HORYU 2 21 Dec 15:29:17 15:33:24 35° 263° (W) 15:37:33 437.375
BEESAT 21 Dec 15:43:47 15:47:28 23° 303° (WNW) 15:51:08 436.000
ISS 21 Dec 15:48:00 15:51:16 57° 167° (SSE) 15:54:30 145.825
GONETS M04 21 Dec 15:50:51 15:59:18 47° 67° (ENE) 16:07:37
BEESAT 2 21 Dec 15:55:25 15:59:05 29° 332° (NNW) 16:02:48 435.950
AUBIESAT-1 21 Dec 16:01:43 16:05:52 37° 302° (WNW) 16:09:41 437.475
Cubesat XI-IV 21 Dec 16:05:08 16:09:03 22° 54° (NE) 16:12:59 437.490
PCSat 21 Dec 16:09:52 16:14:53 36° 325° (NW) 16:19:55 145.827
MOZHAYETS 4 21 Dec 16:10:51 16:13:30 15° 86° (E) 16:16:08
JAS-2 21 Dec 16:16:00 16:23:29 81° 72° (ENE) 16:30:11 435.910
MaSat-1 21 Dec 16:17:46 16:18:30 11° 40° (NE) 16:19:14 437.345
AIST 1 21 Dec 16:22:54 16:27:02 43° 93° (E) 16:31:10
STARS 21 Dec 16:23:58 16:28:06 39° 294° (WNW) 16:32:14 437.465
M-CUBED/EXP-1 PRIME 21 Dec 16:28:32 16:32:05 23° 309° (NW) 16:35:26 437.505
KKS-1 21 Dec 16:30:15 16:34:01 27° 299° (WNW) 16:37:47 437.445
CUTE-I 21 Dec 16:37:01 16:41:44 33° 60° (ENE) 16:46:28 437.470
AO-7 21 Dec 16:41:36 16:49:13 38° 264° (W) 16:56:55 29.400- 29.500
BEESAT 3 21 Dec 16:54:08 16:57:06 18° 346° (NNW) 17:00:04 437.485
RS-15 21 Dec 16:54:20 17:04:47 46° 3° (N) 17:15:34 29.354- 29.394
AIST 2 21 Dec 17:06:29 17:09:53 22° 340° (NNW) 17:13:18 435.215
HO-68 21 Dec 17:14:35 17:17:56 14° 32° (NNE) 17:21:17 435.675
ISS 21 Dec 17:24:27 17:27:44 68° 187° (S) 17:31:00 145.825
BEESAT 2 21 Dec 17:35:51 17:38:35 17° 355° (N) 17:41:19 435.950
Cubesat XI-IV 21 Dec 17:43:14 17:48:35 84° 254° (WSW) 17:53:57 437.490
MOZHAYETS 4 21 Dec 17:46:43 17:51:24 86° 286° (WNW) 17:56:01
GONETS M04 21 Dec 17:47:54 17:56:19 53° 271° (W) 18:04:39
MaSat-1 21 Dec 17:49:41 17:51:58 53° 239° (WSW) 17:54:22 437.345
PCSat 21 Dec 17:55:58 17:59:50 19° 350° (N) 18:03:43 145.827
AIST 1 21 Dec 18:01:12 18:04:53 26° 293° (WNW) 18:08:35
JAS-2 21 Dec 18:03:02 18:09:07 27° 270° (W) 18:14:45 435.910
CUSAT 1 21 Dec 18:05:56 18:10:52 19° 50° (NE) 18:16:18 437.405
PRISM 21 Dec 18:06:32 18:10:07 27° 95° (E) 18:13:39 437.425
STRAND 1 21 Dec 18:13:47 18:17:14 18° 88° (E) 18:20:41 437.568
CUTE-I 21 Dec 18:16:32 18:21:40 49° 260° (W) 18:26:51 437.470
CANX-2 21 Dec 18:25:04 18:26:00 11° 51° (NE) 18:26:56 2200.000
BEESAT 3 21 Dec 18:33:52 18:36:43 17° 10° (N) 18:39:33 437.485
COMPASS 1 21 Dec 18:43:18 18:44:23 11° 51° (NE) 18:45:28 437.405
AIST 2 21 Dec 18:47:02 18:49:56 17° 4° (N) 18:52:49 435.215
SEEDS 21 Dec 18:49:13 18:51:25 14° 54° (NE) 18:53:37 437.485
CUTE 1.7 + AOD 2 21 Dec 18:53:36 18:56:20 17° 56° (ENE) 18:59:05 437.475
HO-68 21 Dec 18:57:18 19:03:51 40° 56° (NE) 19:10:24 435.675
ISS 21 Dec 19:01:05 19:04:03 31° 206° (SSW) 19:06:59 145.825
DANDE 21 Dec 19:02:50 19:09:12 32° 61° (ENE) 19:16:32 436.750
RS-15 21 Dec 19:08:17 19:19:21 66° 35° (NE) 19:30:53 29.354- 29.394
CUBESAT XI-V 21 Dec 19:13:02 19:17:38 62° 101° (ESE) 19:22:11 437.345
BEESAT 2 21 Dec 19:15:00 19:18:14 21° 19° (NNE) 19:21:28 435.950
DX 1 21 Dec 19:16:28 19:16:54 10° 49° (NE) 19:17:20 434.975-435.025
MOZHAYETS 4 21 Dec 19:25:09 19:27:58 16° 306° (NW) 19:30:47
Cubesat XI-IV 21 Dec 19:26:22 19:29:30 16° 274° (W) 19:32:40 437.490
BRITE-PL 21 Dec 19:30:24 19:34:07 33° 65° (ENE) 19:37:54 437.365/2234.400
Oscar 11 21 Dec 19:34:13 19:36:53 16° 55° (NE) 19:39:34 145.826/435.025
AAUSAT CUBESAT 2 21 Dec 19:39:35 19:43:09 27° 63° (ENE) 19:46:45 437.432
PCSat 21 Dec 19:41:03 19:45:12 21° 17° (NNE) 19:49:19 145.827
PRISM 21 Dec 19:41:52 19:45:47 40° 294° (WNW) 19:49:39 437.425
UKube-1 21 Dec 19:43:35 19:46:16 16° 55° (NE) 19:48:57 .
GONETS M04 21 Dec 19:47:25 19:50:58 13° 295° (WNW) 19:54:31
CUSAT 1 21 Dec 19:48:07 19:55:24 59° 71° (ENE) 20:03:44 437.405
GOMX 1 21 Dec 19:50:36 19:54:26 38° 66° (ENE) 19:58:23 467.674
STRAND 1 21 Dec 19:51:58 19:57:05 81° 288° (WNW) 20:02:11 437.568
CANX-2 21 Dec 19:56:51 20:01:04 58° 71° (ENE) 20:05:20 2200.000
CUBEBUG 2 21 Dec 20:02:18 20:05:15 19° 57° (ENE) 20:08:16 437.445
ZACube-1 21 Dec 20:07:50 20:10:29 16° 55° (NE) 20:13:10 437.345
DOVE 4 21 Dec 20:10:03 20:14:00 44° 68° (ENE) 20:18:05 437.250
BEESAT 3 21 Dec 20:12:05 20:15:59 36° 33° (NNE) 20:19:52 437.485
VELOX 1 21 Dec 20:14:44 20:16:50 13° 52° (NE) 20:18:56 145.980
COMPASS 1 21 Dec 20:15:05 20:19:16 61° 71° (ENE) 20:23:30 437.405
SEEDS 21 Dec 20:22:18 20:26:34 82° 74° (ENE) 20:30:54 437.485
DELFI C3 21 Dec 20:24:29 20:28:10 32° 65° (ENE) 20:31:53 145.870
AIST 2 21 Dec 20:26:00 20:29:49 29° 28° (NNE) 20:33:36 435.215
CINEMA 3 21 Dec 20:26:07 20:30:03 40° 66° (ENE) 20:34:08 145.822/145.860
CUTE 1.7 + AOD 2 21 Dec 20:27:27 20:31:44 80° 256° (WSW) 20:36:05 437.475
50 SAT 21 Dec 20:27:38 20:29:22 13° 54° (NE) 20:31:07 437.505
